GW4109 Weather Reports


time (UTC)temp
C
wind
direction
speed
KPH
gust
KPH
rain 1hr
cm
rain 24hr
cm
rain mn
cm
humidity
%
barometer
mb
20260904073035 26 248 1.6 4.8 0.00 0.00 0.00 30 1013.2
20260904072530 25 330 3.2 4.8 0.00 0.00 0.00 34 1013.1
20260904072025 25 55 0.0 1.6 0.00 0.00 0.00 36 1013.1
20260904071521 25 85 3.2 4.8 0.00 0.00 0.00 36 1013.1
20260904071016 25 63 0.0 4.8 0.00 0.00 0.00 36 1013.3
20260904070514 25 284 3.2 8.0 0.00 0.00 0.00 36 1013.1
20260904070009 26 314 9.7 11.3 0.00 0.00 0.00 34 1013.2
20260904065505 27 334 6.4 16.1 0.00 0.00 0.00 21 1013.0
20260904065000 26 174 0.0 6.4 0.00 0.00 0.00 25 1012.9
20260904064456 25 353 1.6 4.8 0.00 0.00 0.00 34 1013.1
20260904063950 25 98 3.2 3.2 0.00 0.00 0.00 34 1013.0
20260904063447 25 282 3.2 3.2 0.00 0.00 0.00 33 1013.1
20260904062942 25 226 0.0 6.4 0.00 0.00 0.00 34 1012.7
20260904062438 26 244 1.6 3.2 0.00 0.00 0.00 33 1013.0
20260904061933 27 92 3.2 8.0 0.00 0.00 0.00 30 1013.0
20260904061430 27 7 1.6 8.0 0.00 0.00 0.00 31 1012.9
20260904060926 26 198 1.6 4.8 0.00 0.00 0.00 33 1012.9
20260904060421 26 194 4.8 4.8 0.00 0.00 0.00 33 1012.9
20260904055917 26 88 1.6 6.4 0.00 0.00 0.00 34 1012.8
20260904055412 26 108 6.4 6.4 0.00 0.00 0.00 34 1012.9
20260904054908 26 139 3.2 3.2 0.00 0.00 0.00 34 1012.9
20260904054403 26 190 1.6 3.2 0.00 0.00 0.00 35 1012.8
20260904053859 26 260 0.0 3.2 0.00 0.00 0.00 35 1012.8
20260904053358 26 99 3.2 6.4 0.00 0.00 0.00 34 1012.8
20260904052854 26 52 0.0 3.2 0.00 0.00 0.00 35 1012.9
20260904052350 26 89 0.0 3.2 0.00 0.00 0.00 35 1012.8
20260904051846 26 96 3.2 3.2 0.00 0.00 0.00 35 1012.8
20260904051337 27 62 0.0 3.2 0.00 0.00 0.00 35 1012.9
20260904050837 27 91 3.2 4.8 0.00 0.00 0.00 34 1012.8
20260904050334 27 107 4.8 6.4 0.00 0.00 0.00 35 1012.8
20260904045833 26 56 3.2 4.8 0.00 0.00 0.00 35 1012.9
20260904045328 26 41 1.6 4.8 0.00 0.00 0.00 36 1013.0
20260904044828 26 66 0.0 3.2 0.00 0.00 0.00 36 1012.9
20260904044325 26 359 3.2 4.8 0.00 0.00 0.00 36 1012.9
20260904043821 27 276 3.2 4.8 0.00 0.00 0.00 34 1012.8
20260904043318 27 92 3.2 6.4 0.00 0.00 0.00 34 1012.6
20260904042817 27 67 3.2 4.8 0.00 0.00 0.00 34 1012.8
20260904042314 26 46 0.0 3.2 0.00 0.00 0.00 35 1013.0
20260904041814 26 55 1.6 3.2 0.00 0.00 0.00 36 1012.8
20260904041310 26 114 0.0 1.6 0.00 0.00 0.00 35 1012.6
20260904040806 27 265 1.6 3.2 0.00 0.00 0.00 34 1012.8
20260904040301 27 261 4.8 4.8 0.00 0.00 0.00 34 1012.6
20260904035757 27 287 3.2 3.2 0.00 0.00 0.00 32 1012.5
20260904035253 28 3 1.6 3.2 0.00 0.00 0.00 31 1012.6
20260904034751 28 330 6.4 9.7 0.00 0.00 0.00 31 1012.6
20260904034248 30 285 11.3 11.3 0.00 0.00 0.00 28 1012.3
20260904033743 30 258 6.4 16.1 0.00 0.00 0.00 27 1012.4
20260904033240 30 257 11.3 14.5 0.00 0.00 0.00 28 1012.3
20260904032736 30 242 12.9 17.7 0.00 0.00 0.00 29 1012.4
20260904032234 30 269 11.3 17.7 0.00 0.00 0.00 29 1012.2
20260904031729 30 243 8.0 20.9 0.00 0.00 0.00 29 1012.1
20260904031224 30 257 8.0 22.5 0.00 0.00 0.00 29 1012.2
20260904030720 30 263 8.0 17.7 0.00 0.00 0.00 28 1012.0
20260904030215 30 277 9.7 17.7 0.00 0.00 0.00 28 1012.0
20260904025712 30 249 14.5 14.5 0.00 0.00 0.00 28 1011.7
20260904025206 30 253 16.1 20.9 0.00 0.00 0.00 28 1011.6
20260904024702 30 252 9.7 22.5 0.00 0.00 0.00 28 1011.6
20260904024157 30 276 8.0 20.9 0.00 0.00 0.00 29 1011.5
20260904023653 30 282 8.0 16.1 0.00 0.00 0.00 29 1011.3
20260904023149 30 265 14.5 14.5 0.00 0.00 0.00 29 1011.4
20260904022648 30 273 9.7 17.7 0.00 0.00 0.00 28 1011.3
20260904022146 30 263 8.0 17.7 0.00 0.00 0.00 29 1011.2
20260904021641 30 264 8.0 16.1 0.00 0.00 0.00 29 1011.4
20260904021136 30 258 17.7 22.5 0.00 0.00 0.00 29 1011.3
20260904020633 31 259 12.9 20.9 0.00 0.00 0.00 28 1011.2
20260904020126 31 284 11.3 16.1 0.00 0.00 0.00 29 1011.5
20260904015620 31 293 9.7 20.9 0.00 0.00 0.00 29 1011.4
20260904015119 31 249 14.5 29.0 0.00 0.00 0.00 29 1011.4
20260904014619 31 271 9.7 19.3 0.00 0.00 0.00 29 1011.5
20260904014114 31 258 14.5 20.9 0.00 0.00 0.00 29 1011.2
20260904013611 31 281 12.9 17.7 0.00 0.00 0.00 28 1011.3
20260904013107 31 269 9.7 20.9 0.00 0.00 0.00 28 1011.4
20260904012602 32 274 17.7 22.5 0.00 0.00 0.00 28 1011.4
20260904012101 32 266 11.3 16.1 0.00 0.00 0.00 27 1011.3
20260904011600 32 251 11.3 14.5 0.00 0.00 0.00 27 1011.3
20260904011056 32 297 11.3 16.1 0.00 0.00 0.00 26 1011.5
20260904010552 33 279 6.4 8.0 0.00 0.00 0.00 25 1011.5
20260904010049 33 249 12.9 24.1 0.00 0.00 0.00 25 1011.4
20260904005548 34 313 8.0 16.1 0.00 0.00 0.00 24 1011.4
20260904005043 33 272 11.3 17.7 0.00 0.00 0.00 25 1011.2
20260904004539 33 256 8.0 22.5 0.00 0.00 0.00 25 1011.3
20260904004034 34 305 11.3 22.5 0.00 0.00 0.00 26 1011.2
20260904003530 34 265 11.3 20.9 0.00 0.00 0.00 25 1011.1
20260904003025 35 304 12.9 16.1 0.00 0.00 0.00 24 1011.1
20260904002521 35 290 8.0 17.7 0.00 0.00 0.00 24 1011.3
20260904002021 35 297 14.5 17.7 0.00 0.00 0.00 24 1011.4
20260904001517 35 244 19.3 25.7 0.00 0.00 0.00 25 1011.2
20260904001016 35 256 8.0 22.5 0.00 0.00 0.00 23 1011.2
20260904000515 35 317 17.7 25.7 0.00 0.00 0.00 24 1011.2
20260904000012 35 266 19.3 32.2 0.00 0.00 0.00 24 1011.3
20260903235511 35 307 11.3 24.1 0.00 0.00 0.00 24 1011.2
20260903235007 35 242 14.5 30.6 0.00 0.00 0.00 23 1011.3
20260903234502 35 271 9.7 29.0 0.00 0.00 0.00 25 1011.3
20260903233958 35 268 19.3 30.6 0.00 0.00 0.00 25 1011.2
20260903233454 35 261 14.5 17.7 0.00 0.00 0.00 25 1011.5
20260903232949 35 248 17.7 30.6 0.00 0.00 0.00 25 1011.7
20260903232444 35 258 14.5 22.5 0.00 0.00 0.00 24 1011.6
20260903231944 35 263 19.3 27.4 0.00 0.00 0.00 23 1011.8
20260903231439 35 268 12.9 35.4 0.00 0.00 0.00 23 1012.0
20260903230933 35 292 12.9 29.0 0.00 0.00 0.00 22 1011.8
20260903230429 36 295 14.5 24.1 0.00 0.00 0.00 22 1012.1
20260903225926 36 258 16.1 30.6 0.00 0.00 0.00 21 1012.0
20260903225421 36 249 20.9 32.2 0.00 0.00 0.00 20 1011.8
20260903224917 36 258 17.7 32.2 0.00 0.00 0.00 20 1012.2
20260903224413 36 277 16.1 24.1 0.00 0.00 0.00 19 1012.2
20260903223909 36 237 8.0 22.5 0.00 0.00 0.00 18 1012.2
20260903223408 36 254 16.1 29.0 0.00 0.00 0.00 17 1012.1
20260903222907 36 253 22.5 27.4 0.00 0.00 0.00 18 1012.3
20260903222403 36 280 12.9 27.4 0.00 0.00 0.00 17 1012.4
20260903221857 36 242 24.1 33.8 0.00 0.00 0.00 17 1012.2
20260903221355 37 229 20.9 32.2 0.00 0.00 0.00 16 1012.4
20260903220854 37 259 14.5 27.4 0.00 0.00 0.00 15 1012.3
20260903220348 37 304 14.5 20.9 0.00 0.00 0.00 16 1012.4
20260903215847 37 241 20.9 24.1 0.00 0.00 0.00 16 1012.3
20260903215343 37 231 17.7 24.1 0.00 0.00 0.00 16 1012.4
20260903214842 37 286 14.5 20.9 0.00 0.00 0.00 16 1012.4
20260903214338 37 246 27.4 29.0 0.00 0.00 0.00 16 1012.2
20260903213837 37 302 12.9 25.7 0.00 0.00 0.00 16 1012.4
20260903213332 37 254 22.5 24.1 0.00 0.00 0.00 16 1012.5
20260903212828 37 263 11.3 30.6 0.00 0.00 0.00 15 1012.6
20260903212325 37 265 6.4 24.1 0.00 0.00 0.00 15 1012.6
20260903211824 37 327 20.9 32.2 0.00 0.00 0.00 15 1012.7
20260903211320 37 310 14.5 24.1 0.00 0.00 0.00 15 1012.8
20260903210816 37 309 12.9 22.5 0.00 0.00 0.00 14 1012.7
20260903210311 37 319 16.1 20.9 0.00 0.00 0.00 14 1012.8
20260903205810 37 310 8.0 24.1 0.00 0.00 0.00 14 1012.8
20260903205310 37 259 12.9 20.9 0.00 0.00 0.00 14 1012.9
20260903204805 37 309 9.7 20.9 0.00 0.00 0.00 13 1012.9
20260903204301 37 299 4.8 20.9 0.00 0.00 0.00 13 1012.8
20260903203757 37 308 12.9 17.7 0.00 0.00 0.00 13 1012.8
20260903203252 37 290 12.9 17.7 0.00 0.00 0.00 13 1013.0
20260903202751 38 346 6.4 9.7 0.00 0.00 0.00 12 1013.0
20260903202248 37 308 8.0 9.7 0.00 0.00 0.00 12 1013.2
20260903201746 37 301 8.0 14.5 0.00 0.00 0.00 12 1013.2
20260903201242 37 105 1.6 12.9 0.00 0.00 0.00 11 1013.0
20260903200741 36 297 6.4 8.0 0.00 0.00 0.00 11 1013.3
20260903200236 37 354 4.8 9.7 0.00 0.00 0.00 12 1013.3
20260903195732 37 187 4.8 6.4 0.00 0.00 0.00 10 1013.4
20260903195228 37 201 1.6 6.4 0.00 0.00 0.00 10 1013.4
20260903194728 37 344 1.6 4.8 0.00 0.00 0.00 10 1013.5
20260903194223 37 221 6.4 6.4 0.00 0.00 0.00 11 1013.7
20260903193719 36 63 3.2 8.0 0.00 0.00 0.00 11 1013.5
20260903193214 37 86 0.0 4.8 0.00 0.00 0.00 10 1013.8
20260903192710 36 39 3.2 6.4 0.00 0.00 0.00 11 1013.9
20260903192205 36 102 8.0 9.7 0.00 0.00 0.00 11 1014.0
20260903191701 35 275 1.6 12.9 0.00 0.00 0.00 11 1014.0
20260903191156 36 118 4.8 6.4 0.00 0.00 0.00 11 1014.1
20260903190651 37 55 0.0 6.4 0.00 0.00 0.00 10 1014.3
20260903190151 37 221 0.0 6.4 0.00 0.00 0.00 10 1014.3
20260903185646 36 84 1.6 9.7 0.00 0.00 0.00 10 1014.3
20260903185141 36 77 4.8 11.3 0.00 0.00 0.00 11 1014.5
20260903184638 36 220 3.2 6.4 0.00 0.00 0.00 11 1014.6
20260903184133 36 67 4.8 8.0 0.00 0.00 0.00 11 1014.6
20260903183631 35 307 6.4 6.4 0.00 0.00 0.00 11 1014.8
20260903183126 35 105 0.0 6.4 0.00 0.00 0.00 11 1014.7
20260903182626 35 96 4.8 6.4 0.00 0.00 0.00 11 1014.9
20260903182122 35 74 6.4 8.0 0.00 0.00 0.00 11 1015.0
20260903181620 35 139 1.6 6.4 0.00 0.00 0.00 10 1015.1
20260903181115 35 230 0.0 9.7 0.00 0.00 0.00 11 1015.1
20260903180610 35 251 4.8 6.4 0.00 0.00 0.00 11 1015.1
20260903180104 35 115 3.2 6.4 0.00 0.00 0.00 10 1015.0
20260903175603 35 84 3.2 9.7 0.00 0.00 0.00 10 1015.2
20260903175103 34 100 6.4 6.4 0.00 0.00 0.00 10 1015.2
20260903174558 33 84 3.2 8.0 0.00 0.00 0.00 11 1015.3
20260903174052 33 269 0.0 4.8 0.00 0.00 0.00 11 1015.3
20260903173547 34 150 0.0 4.8 0.00 0.00 0.00 10 1015.4
20260903173045 33 143 3.2 3.2 0.00 0.00 0.00 10 1015.3
20260903172544 33 143 1.6 6.4 0.00 0.00 0.00 11 1015.3
20260903172040 33 88 4.8 9.7 0.00 0.00 0.00 11 1015.2
20260903171535 33 5 1.6 3.2 0.00 0.00 0.00 12 1015.4
20260903171030 33 104 3.2 6.4 0.00 0.00 0.00 12 1015.1
20260903170523 32 128 3.2 4.8 0.00 0.00 0.00 12 1015.5
20260903170019 32 86 3.2 6.4 0.00 0.00 0.00 11 1015.4
20260903165516 32 322 0.0 6.4 0.00 0.00 0.00 12 1015.5
20260903165012 33 58 1.6 4.8 0.00 0.00 0.00 11 1015.4
20260903164506 32 66 3.2 4.8 0.00 0.00 0.00 12 1015.4
20260903164001 32 94 0.0 4.8 0.00 0.00 0.00 11 1015.2
20260903163456 32 293 0.0 3.2 0.00 0.00 0.00 11 1015.4
20260903162952 31 99 3.2 6.4 0.00 0.00 0.00 12 1015.1
20260903162448 31 349 3.2 3.2 0.00 0.00 0.00 13 1015.4
20260903161944 31 83 3.2 3.2 0.00 0.00 0.00 12 1015.3
20260903161434 31 68 3.2 3.2 0.00 0.00 0.00 12 1015.3
20260903160930 31 51 0.0 3.2 0.00 0.00 0.00 12 1015.4
20260903160429 31 81 3.2 4.8 0.00 0.00 0.00 12 1015.5
20260903155928 31 51 3.2 3.2 0.00 0.00 0.00 13 1015.4
20260903155423 31 43 1.6 3.2 0.00 0.00 0.00 13 1015.3
20260903154919 31 79 3.2 6.4 0.00 0.00 0.00 12 1015.3
20260903154414 31 87 6.4 6.4 0.00 0.00 0.00 12 1015.5
20260903153914 30 39 0.0 3.2 0.00 0.00 0.00 13 1015.2
20260903153409 30 22 0.0 4.8 0.00 0.00 0.00 14 1015.6
20260903152906 30 357 3.2 3.2 0.00 0.00 0.00 15 1015.5
20260903152401 30 41 3.2 3.2 0.00 0.00 0.00 15 1015.4
20260903151857 30 65 3.2 4.8 0.00 0.00 0.00 14 1015.5
20260903151352 29 320 3.2 3.2 0.00 0.00 0.00 14 1015.4
20260903150847 29 28 0.0 4.8 0.00 0.00 0.00 16 1015.4
20260903150346 31 318 0.0 1.6 0.00 0.00 0.00 13 1015.4
20260903145841 29 48 0.0 1.6 0.00 0.00 0.00 13 1015.3
20260903145337 28 17 1.6 3.2 0.00 0.00 0.00 15 1015.6
20260903144836 30 13 0.0 1.6 0.00 0.00 0.00 14 1015.4
20260903144331 28 27 0.0 3.2 0.00 0.00 0.00 14 1015.3
20260903143826 26 75 0.0 3.2 0.00 0.00 0.00 15 1015.4
20260903143323 25 141 0.0 1.6 0.00 0.00 0.00 15 1015.3
20260903142818 24 147 0.0 3.2 0.00 0.00 0.00 16 1015.3
20260903142315 24 248 0.0 3.2 0.00 0.00 0.00 16 1015.4
20260903141810 23 180 1.6 3.2 0.00 0.00 0.00 16 1015.2
20260903141306 22 180 3.2 3.2 0.00 0.00 0.00 18 1015.3
20260903140806 22 209 3.2 4.8 0.00 0.00 0.00 17 1015.3
20260903140300 21 226 0.0 3.2 0.00 0.00 0.00 18 1015.3
20260903135756 21 185 1.6 3.2 0.00 0.00 0.00 19 1015.1
20260903135252 20 187 1.6 3.2 0.00 0.00 0.00 19 1015.0
20260903134750 20 225 3.2 3.2 0.00 0.00 0.00 19 1015.0
20260903134247 20 241 1.6 6.4 0.00 0.00 0.00 18 1015.0
20260903133743 20 260 3.2 4.8 0.00 0.00 0.00 18 1014.9
20260903133240 18 237 3.2 3.2 0.00 0.00 0.00 18 1015.0
20260903132740 19 225 1.6 3.2 0.00 0.00 0.00 18 1014.9
20260903132235 19 242 0.0 3.2 0.00 0.00 0.00 18 1014.9
20260903131731 19 95 0.0 3.2 0.00 0.00 0.00 18 1015.1
20260903131224 20 290 0.0 3.2 0.00 0.00 0.00 18 1015.0
20260903130719 19 97 4.8 6.4 0.00 0.00 0.00 18 1014.8
20260903130214 19 246 1.6 3.2 0.00 0.00 0.00 17 1014.9
20260903125712 18 126 3.2 4.8 0.00 0.00 0.00 17 1014.9
20260903125208 18 264 3.2 4.8 0.00 0.00 0.00 17 1014.8
20260903124707 18 159 0.0 3.2 0.00 0.00 0.00 18 1015.0
20260903124203 19 175 3.2 4.8 0.00 0.00 0.00 18 1014.7
20260903123701 18 317 0.0 1.6 0.00 0.00 0.00 18 1014.9
20260903123200 18 229 1.6 3.2 0.00 0.00 0.00 18 1014.8
20260903122659 19 245 0.0 3.2 0.00 0.00 0.00 20 1014.9
20260903122154 18 252 1.6 3.2 0.00 0.00 0.00 19 1014.7
20260903121652 18 200 1.6 3.2 0.00 0.00 0.00 20 1014.7
20260903121149 19 250 0.0 3.2 0.00 0.00 0.00 21 1014.8
20260903120648 20 206 0.0 3.2 0.00 0.00 0.00 20 1014.7
20260903120142 20 299 0.0 3.2 0.00 0.00 0.00 20 1014.7
20260903115640 20 193 0.0 3.2 0.00 0.00 0.00 20 1014.7
20260903115136 20 224 0.0 1.6 0.00 0.00 0.00 19 1014.9
20260903114631 20 13 0.0 3.2 0.00 0.00 0.00 19 1015.0
20260903114126 20 56 0.0 1.6 0.00 0.00 0.00 19 1015.0
20260903113622 19 25 0.0 3.2 0.00 0.00 0.00 18 1015.0
20260903113118 20 283 0.0 3.2 0.00 0.00 0.00 17 1014.8
20260903112614 20 154 1.6 3.2 0.00 0.00 0.00 17 1014.8
20260903112114 20 250 1.6 3.2 0.00 0.00 0.00 18 1014.8
20260903111613 19 151 3.2 3.2 0.00 0.00 0.00 18 1015.0
20260903111109 20 188 1.6 3.2 0.00 0.00 0.00 18 1014.9
20260903110605 20 284 0.0 3.2 0.00 0.00 0.00 18 1014.9
20260903110059 21 205 3.2 3.2 0.00 0.00 0.00 17 1014.8
20260903105554 20 62 0.0 3.2 0.00 0.00 0.00 18 1015.0
20260903105049 21 251 3.2 3.2 0.00 0.00 0.00 17 1014.9
20260903104543 21 198 3.2 4.8 0.00 0.00 0.00 17 1014.9
20260903104039 21 236 0.0 3.2 0.00 0.00 0.00 18 1015.0
20260903103535 21 237 0.0 3.2 0.00 0.00 0.00 18 1014.9
20260903103026 21 192 0.0 3.2 0.00 0.00 0.00 18 1014.9
20260903102521 21 215 1.6 4.8 0.00 0.00 0.00 17 1014.7
20260903102019 21 148 1.6 3.2 0.00 0.00 0.00 18 1014.9
20260903101514 20 193 3.2 4.8 0.00 0.00 0.00 18 1014.7
20260903101010 20 248 3.2 3.2 0.00 0.00 0.00 19 1014.9
20260903100505 21 287 1.6 3.2 0.00 0.00 0.00 18 1014.8
20260903100003 22 209 1.6 3.2 0.00 0.00 0.00 18 1014.9
20260903095501 22 227 0.0 3.2 0.00 0.00 0.00 18 1014.9
20260903094956 22 208 3.2 4.8 0.00 0.00 0.00 18 1014.9
20260903094456 22 158 1.6 3.2 0.00 0.00 0.00 18 1014.9
20260903093953 22 198 3.2 4.8 0.00 0.00 0.00 18 1015.0
20260903093447 21 231 1.6 3.2 0.00 0.00 0.00 20 1015.0
20260903092943 22 183 1.6 3.2 0.00 0.00 0.00 21 1015.1
20260903092443 22 121 1.6 1.6 0.00 0.00 0.00 21 1015.1
20260903091942 22 230 0.0 1.6 0.00 0.00 0.00 21 1015.0
20260903091440 22 122 0.0 3.2 0.00 0.00 0.00 21 1015.0
20260903090935 21 187 1.6 3.2 0.00 0.00 0.00 21 1015.1
20260903090431 21 221 1.6 3.2 0.00 0.00 0.00 22 1015.0
20260903085929 21 173 1.6 4.8 0.00 0.00 0.00 22 1015.0
20260903085428 21 182 1.6 4.8 0.00 0.00 0.00 22 1015.2
20260903084928 21 209 1.6 3.2 0.00 0.00 0.00 22 1015.1
20260903084426 22 269 1.6 3.2 0.00 0.00 0.00 21 1015.0
20260903083922 22 123 0.0 3.2 0.00 0.00 0.00 21 1015.1
20260903083418 23 260 3.2 4.8 0.00 0.00 0.00 20 1015.2
20260903082917 23 84 0.0 4.8 0.00 0.00 0.00 20 1015.2
20260903082412 22 151 1.6 3.2 0.00 0.00 0.00 21 1015.2
20260903081907 22 218 0.0 3.2 0.00 0.00 0.00 21 1015.3
20260903081402 22 207 0.0 3.2 0.00 0.00 0.00 21 1015.3
20260903080858 22 164 1.6 3.2 0.00 0.00 0.00 21 1015.5
20260903080355 22 180 1.6 3.2 0.00 0.00 0.00 21 1015.5
20260903075855 22 130 0.0 4.8 0.00 0.00 0.00 21 1015.4
20260903075351 22 179 3.2 4.8 0.00 0.00 0.00 21 1015.6
20260903074851 22 204 3.2 4.8 0.00 0.00 0.00 20 1015.6
20260903074345 21 120 0.0 3.2 0.00 0.00 0.00 21 1015.5
20260903073841 21 249 3.2 3.2 0.00 0.00 0.00 20 1015.7
20260903073341 22 145 0.0 3.2 0.00 0.00 0.00 20 1015.6